Flag for Romania Weather past 2 weeks in Bucharest, Romania

Now
70 °F

Passing clouds.


Feels Like: 70 °F
Forecast: 60 / 80 °F
Wind: 3 mph from Northwest

Location: Bucharest / Imh

Current Time: Jul 2, 2015 at 9:23:21 PM

Latest Report: Jul 2, 2015 at 9:00 PM


Visibility: N/A

Pressure: 30.18 "Hg

Humidity: 78%

Dew point: 63 °F

Location of BucharestLocation

Historic Weather in Bucharest — Graph

°F

Bucharest temperature yesterday

Maximum temperature yesterday: 84 °F (at 4:00 PM)
Minimum temperature yesterday: 64 °F (at 5:30 AM)
Average temperature yesterday: 74 °F

Past Weeks' High & Low Weather Summary

 TemperatureHumidityPressure
High86 °F (Jun 24, 4:30 PM)100% (Jun 21, 4:30 PM)30.15 "Hg (Jun 21, 4:30 PM)
Low55 °F (Jun 21, 11:00 PM)27% (Jun 24, 6:30 PM)29.74 "Hg (Jun 19, 6:00 PM)
Average69 °F66%29.95 "Hg
* Reported Jun 17 8:00 PM — Jul 2 8:00 PM, Bucharest, Weather by CustomWeather, © 2015

Note: Actual official high and low records may vary slightly from our data, if they occured in-between our weather recording intervals... More about our weather records

Advertising

Bucharest weather history for previous 24 hours

 ConditionsComfort  
Time TempWeatherWind HumidityBarometerVisibility
8:00 PM
Thu, Jul 2
70 °FScattered showers. Scattered clouds.2 mph73%30.15 "HgN/A
7:30 PM70 °FScattered clouds.2 mph73%30.15 "HgN/A
7:00 PM70 °FSprinkles. Scattered clouds.8 mph69%30.15 "HgN/A
6:30 PM73 °FScattered clouds.14 mph57%30.15 "HgN/A
6:00 PM73 °FPassing clouds.9 mph57%30.15 "HgN/A
5:30 PM75 °FPassing clouds.9 mph57%30.15 "HgN/A
5:00 PM75 °FPassing clouds.12 mph57%30.15 "HgN/A
4:30 PM72 °FPassing clouds.9 mph65%30.15 "HgN/A
4:00 PM73 °FSprinkles. Passing clouds.9 mph69%30.15 "HgN/A
3:30 PM73 °FPassing clouds.12 mph69%30.15 "HgN/A
3:00 PM72 °FScattered clouds.10 mph73%30.15 "HgN/A
2:30 PM72 °FSprinkles. Partly sunny.10 mph73%30.15 "HgN/A
2:00 PM79 °FScattered clouds.7 mph48%30.12 "HgN/A
1:30 PM81 °FScattered clouds.5 mph45%30.12 "HgN/A
1:00 PM81 °FSunny.6 mph45%30.15 "Hg10 mi
12:30 PM81 °FPassing clouds.7 mph48%30.15 "HgN/A
12:00 PM81 °FPassing clouds.8 mph45%30.15 "HgN/A
11:30 AM79 °FPassing clouds.7 mph54%30.15 "HgN/A
11:00 AM77 °FPassing clouds.7 mph57%30.15 "HgN/A
10:30 AM79 °FPassing clouds.7 mph58%30.15 "HgN/A
10:00 AM75 °FPassing clouds.7 mph61%30.15 "HgN/A
9:30 AM75 °FPassing clouds.7 mph61%30.15 "HgN/A
9:00 AM73 °FPassing clouds.5 mph65%30.15 "HgN/A
8:30 AM72 °FSunny.1 mph69%30.15 "Hg10 mi
8:00 AM70 °FSunny.2 mph73%30.15 "Hg10 mi
7:30 AM66 °FPassing clouds.3 mph78%30.15 "HgN/A
7:00 AM64 °FPassing clouds.3 mph83%30.15 "HgN/A
6:30 AM63 °FPassing clouds.3 mph88%30.15 "HgN/A
6:00 AM63 °FClear.3 mph88%30.12 "Hg10 mi
5:30 AM63 °FClear.2 mph88%30.12 "Hg10 mi
5:00 AM64 °FClear.2 mph83%30.12 "Hg10 mi
4:30 AM64 °FClear.2 mph83%30.12 "Hg10 mi
4:00 AM64 °FClear.3 mph83%30.12 "Hg10 mi
3:30 AM64 °FClear.2 mph83%30.12 "Hg10 mi
3:00 AM64 °FPassing clouds.3 mph83%30.15 "HgN/A
2:30 AM66 °FClear.2 mph78%30.15 "Hg10 mi
2:00 AM66 °FClear.2 mph78%30.15 "Hg10 mi
1:30 AM66 °FClear.3 mph78%30.15 "Hg10 mi
1:00 AM66 °FMild.2 mph78%30.15 "HgN/A
12:00 AM70 °FPassing clouds.3 mph69%30.15 "HgN/A
11:30 PM
Wed, Jul 1
73 °FClear.1 mph61%30.15 "Hg10 mi
11:00 PM73 °FClear.3 mph65%30.15 "Hg10 mi
10:30 PM73 °FClear.1 mph69%30.15 "Hg10 mi
10:00 PM75 °FSunny.2 mph57%30.15 "Hg10 mi
9:30 PM77 °FSunny.3 mph54%30.12 "Hg10 mi
9:00 PM77 °FSunny.5 mph57%30.12 "Hg10 mi
Weather by CustomWeather, © 2015

See weather overviewHow to use our weather pages